Weather History for Thermal, CA

Change the Weather History Date:

Tuesday, June 18, 2013

  Actual Average Record
Temperature  
Mean Temperature 86 °F 86 °F  
Max Temperature 105 °F 104 °F 114 °F (1985)
Min Temperature 67 °F 68 °F 55 °F (1998)
Degree Days  
Heating Degree Days 0 0  
Month to date heating degree days 0 0  
Since 1 June heating degree days 0 0  
Since 1 July heating degree days 1124 1181  
Cooling Degree Days 21 21  
Month to date cooling degree days 401 339  
Year to date cooling degree days 1308 1012  
Since 1 June cooling degree days 401 339  
Growing Degree Days 36 (Base 50)    
Moisture  
Dew Point 46 °F    
Average Humidity 32    
Maximum Humidity 55    
Minimum Humidity 9    
Precipitation  
Precipitation 0.00 in 0.00 in 0.00 in (2014)
Month to date precipitation 0.00 0.01  
Year to date precipitation 0.44 1.81  
Since 1 July precipitation 2.62 3.19  
Snow  
Snow 0.00 in - - ()
Month to date snowfall 0.0  
Year to date snowfall 0.0  
Since 1 July snowfall 0.0  
Snow Depth 0.00 in    
Sea Level Pressure  
Sea Level Pressure 29.67 in    
Wind  
Wind Speed 5 mph (NW)    
Max Wind Speed 13 mph    
Max Gust Speed 17 mph    
Visibility 10 miles    
Events      
T = Trace of Precipitation, MM = Missing Value Source: NWS Daily Summary

Daily Weather History Graph

Daily Weather History Graph

Search for Another Location

Airport:

Trip Planner

Search our weather history database for the weather conditions in past years. The results will help you decide how hot, cold, wet, or windy it might be!

Date:

Astronomy

Jun. 18, 2013 Rise Set
Actual Time 5:34 AM PDT 7:57 PM PDT
Civil Twilight 5:05 AM PDT 8:26 PM PDT
Nautical Twilight 4:29 AM PDT 9:02 PM PDT
Astronomical Twilight 3:50 AM PDT 9:41 PM PDT
Moon 2:57 PM PDT (6/18) 1:32 AM PDT (6/18)
Length of Visible Light 15h 21m
Length of Day
14h 23m
Waxing Gibbous, 72% of the Moon is Illuminated
Jun 18
Waxing Gibbous
Jun 23
Full
Jun 29
Last Quarter
Jul 8
New
Jul 15
First Quarter

Hourly Weather History & Observations

Time (PDT) Temp. Heat Index Dew Point Humidity Pressure Visibility Wind Dir Wind Speed Gust Speed Precip Events Conditions
12:52 AM 86.0 °F - 48.9 °F 28% 29.69 in 10.0 mi NW 9.2 mph - N/A   Clear
1:52 AM 86.0 °F - 48.9 °F 28% 29.68 in 10.0 mi NNW 10.4 mph - N/A   Clear
2:52 AM 82.9 °F - 46.0 °F 27% 29.68 in 10.0 mi NW 5.8 mph - N/A   Clear
3:52 AM 81.0 °F - 46.9 °F 30% 29.69 in 10.0 mi NW 9.2 mph - N/A   Clear
4:52 AM 73.0 °F - 48.9 °F 42% 29.70 in 10.0 mi Calm Calm - N/A   Clear
5:52 AM 68.0 °F - 51.1 °F 55% 29.74 in 10.0 mi Calm Calm - N/A   Clear
6:52 AM 75.0 °F - 54.0 °F 48% 29.73 in 10.0 mi Calm Calm - N/A   Clear
7:52 AM 82.0 °F 81.3 °F 54.0 °F 38% 29.74 in 10.0 mi Calm Calm - N/A   Clear
8:52 AM 88.0 °F - 51.1 °F 28% 29.74 in 10.0 mi WSW 3.5 mph - N/A   Clear
9:52 AM 93.0 °F - 45.0 °F 19% 29.73 in 10.0 mi Calm Calm - N/A   Clear
10:52 AM 96.1 °F - 43.0 °F 16% 29.72 in 10.0 mi Calm Calm - N/A   Clear
11:52 AM 100.0 °F - 48.9 °F 18% 29.72 in 10.0 mi SSE 10.4 mph 17.3 mph N/A   Clear
12:52 PM 100.0 °F - 46.9 °F 16% 29.70 in 10.0 mi SSE 10.4 mph - N/A   Clear
1:52 PM 102.0 °F - 43.0 °F 13% 29.68 in 10.0 mi SSE 8.1 mph - N/A   Clear
2:52 PM 104.0 °F - 35.1 °F 9% 29.65 in 10.0 mi SSE 8.1 mph - N/A   Clear
3:52 PM 104.0 °F - 39.0 °F 11% 29.63 in 10.0 mi Variable 4.6 mph - N/A   Clear
4:52 PM 104.0 °F - 42.1 °F 12% 29.60 in 10.0 mi SSE 8.1 mph - N/A   Clear
5:52 PM 102.9 °F - 37.9 °F 11% 29.58 in 10.0 mi SE 5.8 mph - N/A   Clear
6:52 PM 100.9 °F - 42.1 °F 13% 29.59 in 10.0 mi NNW 11.5 mph 17.3 mph N/A   Clear
7:52 PM 95.0 °F - 44.1 °F 17% 29.60 in 8.0 mi NNW 20.7 mph 29.9 mph N/A   Clear
8:52 PM 91.0 °F - 44.1 °F 20% 29.61 in 10.0 mi NNW 24.2 mph 31.1 mph N/A   Clear
9:52 PM 88.0 °F - 46.0 °F 23% 29.63 in 10.0 mi NNW 17.3 mph 25.3 mph N/A   Clear
10:52 PM 86.0 °F - 44.1 °F 23% 29.63 in 10.0 mi NNW 18.4 mph - N/A   Clear
11:52 PM 84.9 °F - 42.1 °F 22% 29.62 in 10.0 mi NNW 16.1 mph 26.5 mph N/A   Clear